TimeCST,TemperatureF,Dew PointF,Humidity,Sea Level PressureIn,VisibilityMPH,Wind Direction,Wind SpeedMPH,Gust SpeedMPH,PrecipitationIn,Events,Conditions,WindDirDegrees,DateUTC
12:53 AM,44.1,23.0,43,30.03,10.0,SSW,6.9,-,N/A,,Clear,210,2014-02-08 06:53:00
1:53 AM,43.0,23.0,45,30.02,10.0,SSW,12.7,-,N/A,,Clear,210,2014-02-08 07:53:00
2:53 AM,41.0,23.0,49,30.01,10.0,SW,13.8,-,N/A,,Clear,220,2014-02-08 08:53:00
3:53 AM,46.0,23.0,40,29.99,10.0,SSW,13.8,-,N/A,,Clear,210,2014-02-08 09:53:00
4:53 AM,46.0,21.9,39,29.99,10.0,SW,13.8,-,N/A,,Clear,220,2014-02-08 10:53:00
5:53 AM,45.0,23.0,42,30.00,10.0,SW,12.7,-,N/A,,Clear,220,2014-02-08 11:53:00
6:53 AM,46.9,23.0,39,30.01,10.0,SW,13.8,-,N/A,,Clear,220,2014-02-08 12:53:00
7:53 AM,46.0,23.0,40,30.05,10.0,SSW,13.8,-,N/A,,Clear,210,2014-02-08 13:53:00
8:53 AM,53.1,24.1,32,30.05,10.0,SW,17.3,-,N/A,,Clear,220,2014-02-08 14:53:00
9:53 AM,59.0,24.1,26,30.05,10.0,WSW,17.3,-,N/A,,Clear,240,2014-02-08 15:53:00
10:53 AM,64.0,21.9,20,30.04,10.0,WSW,15.0,-,N/A,,Clear,250,2014-02-08 16:53:00
11:53 AM,69.1,19.0,15,30.03,10.0,West,13.8,20.7,N/A,,Clear,280,2014-02-08 17:53:00
12:53 PM,71.1,18.0,13,30.00,10.0,WNW,11.5,25.3,N/A,,Clear,300,2014-02-08 18:53:00
1:53 PM,71.1,17.1,13,29.98,10.0,WNW,20.7,31.1,N/A,,Clear,300,2014-02-08 19:53:00
2:53 PM,72.0,19.0,13,29.97,10.0,WNW,16.1,31.1,N/A,,Clear,300,2014-02-08 20:53:00
3:53 PM,72.0,19.9,14,29.94,10.0,WNW,21.9,29.9,N/A,,Clear,300,2014-02-08 21:53:00
4:53 PM,72.0,21.0,15,29.94,10.0,WNW,20.7,29.9,N/A,,Clear,300,2014-02-08 22:53:00
5:53 PM,70.0,21.0,16,29.97,10.0,NW,17.3,-,N/A,,Clear,310,2014-02-08 23:53:00
6:53 PM,62.1,21.0,21,29.99,10.0,NW,9.2,-,N/A,,Clear,310,2014-02-09 00:53:00
7:53 PM,59.0,19.9,22,30.03,10.0,WNW,5.8,-,N/A,,Clear,290,2014-02-09 01:53:00
8:53 PM,55.0,19.0,24,30.03,10.0,WSW,6.9,-,N/A,,Clear,250,2014-02-09 02:53:00
9:53 PM,54.0,19.0,25,30.03,10.0,SW,9.2,-,N/A,,Clear,220,2014-02-09 03:53:00
10:53 PM,52.0,19.0,27,30.02,10.0,SSW,12.7,-,N/A,,Clear,210,2014-02-09 04:53:00
11:53 PM,50.0,19.0,29,30.01,10.0,SW,12.7,-,N/A,,Clear,220,2014-02-09 05:53:00